Weather History for Newton, KS

Change the Weather History Date:

Saturday, January 25, 2014

  Actual Average Record
Temperature  
Mean Temperature 45 °F -  
Max Temperature 55 °F 38 °F 60 °F (2005)
Min Temperature 35 °F 21 °F 10 °F (1997)
Degree Days  
Heating Degree Days 20    
Moisture  
Dew Point 25 °F    
Average Humidity 47    
Maximum Humidity 61    
Minimum Humidity 33    
Precipitation  
Precipitation 0.00 in - - ()
Sea Level Pressure  
Sea Level Pressure 29.99 in    
Wind  
Wind Speed 11 mph (WNW)    
Max Wind Speed 24 mph    
Max Gust Speed 31 mph    
Visibility 10 miles    
Events      
Averages and records for this station are not official NWS values.
T = Trace of Precipitation, MM = Missing Value Source: NWS Daily Summary

Daily Weather History Graph

Daily Weather History Graph

Search for Another Location

Airport:

Trip Planner

Search our weather history database for the weather conditions in past years. The results will help you decide how hot, cold, wet, or windy it might be!

Date:

Astronomy

Jan. 25, 2014 Rise Set
Actual Time 7:38 AM CST 5:44 PM CST
Civil Twilight 7:10 AM CST 6:12 PM CST
Nautical Twilight 6:38 AM CST 6:44 PM CST
Astronomical Twilight 6:07 AM CST 7:15 PM CST
Moon 2:12 AM CST (1/25) 12:45 PM CST (1/25)
Length of Visible Light 11h 01m
Length of Day
10h 05m
Waning Crescent, 34% of the Moon is Illuminated
Jan 25
Waning Crescent
Jan 30
New
Feb 6
First Quarter
Feb 14
Full
Feb 22
Last Quarter

Hourly Weather History & Observations

Time (CST) Temp. Windchill Dew Point Humidity Pressure Visibility Wind Dir Wind Speed Gust Speed Precip Events Conditions
12:15 AM 39.2 °F 33.0 °F 19.4 °F 45% 29.92 in 10.0 mi WSW 9.2 mph - N/A   Overcast
12:35 AM 42.8 °F 38.0 °F 19.4 °F 39% 29.92 in 10.0 mi West 8.1 mph - N/A   Overcast
12:55 AM 41.0 °F 35.2 °F 19.4 °F 42% 29.92 in 10.0 mi WNW 9.2 mph - N/A   Overcast
1:15 AM 44.6 °F 38.1 °F 21.2 °F 39% 29.93 in 10.0 mi WNW 13.8 mph - N/A   Overcast
1:35 AM 44.6 °F 37.4 °F 21.2 °F 39% 29.93 in 10.0 mi WNW 16.1 mph - N/A   Mostly Cloudy
1:55 AM 44.6 °F 38.4 °F 21.2 °F 39% 29.94 in 10.0 mi WNW 12.7 mph - N/A   Partly Cloudy
2:15 AM 42.8 °F 36.2 °F 21.2 °F 42% 29.95 in 10.0 mi WNW 12.7 mph - N/A   Clear
2:35 AM 42.8 °F 36.6 °F 21.2 °F 42% 29.95 in 10.0 mi WNW 11.5 mph - N/A   Clear
2:55 AM 42.8 °F 36.6 °F 21.2 °F 42% 29.96 in 10.0 mi WNW 11.5 mph - N/A   Clear
3:15 AM 42.8 °F 36.6 °F 21.2 °F 42% 29.96 in 10.0 mi NW 11.5 mph - N/A   Clear
3:35 AM 37.4 °F 30.8 °F 21.2 °F 52% 29.97 in 10.0 mi WNW 9.2 mph - N/A   Clear
3:55 AM 37.4 °F 30.3 °F 21.2 °F 52% 29.98 in 10.0 mi West 10.4 mph - N/A   Clear
4:15 AM 37.4 °F 30.3 °F 21.2 °F 52% 29.97 in 10.0 mi West 10.4 mph - N/A   Clear
4:35 AM 37.4 °F 30.8 °F 21.2 °F 52% 29.98 in 10.0 mi WNW 9.2 mph - N/A   Clear
4:55 AM 35.6 °F 28.6 °F 21.2 °F 56% 29.98 in 10.0 mi West 9.2 mph - N/A   Clear
5:15 AM 35.6 °F 28.6 °F 21.2 °F 56% 29.99 in 10.0 mi WNW 9.2 mph - N/A   Clear
5:35 AM 37.4 °F 30.3 °F 23.0 °F 56% 29.99 in 10.0 mi WNW 10.4 mph - N/A   Clear
5:55 AM 37.4 °F 30.8 °F 21.2 °F 52% 29.99 in 10.0 mi WNW 9.2 mph - N/A   Partly Cloudy
6:15 AM 35.6 °F 29.9 °F 21.2 °F 56% 30.00 in 10.0 mi West 6.9 mph - N/A   Clear
6:35 AM 35.6 °F 29.9 °F 21.2 °F 56% 30.01 in 10.0 mi WNW 6.9 mph - N/A   Clear
6:55 AM 35.6 °F 29.2 °F 21.2 °F 56% 30.02 in 10.0 mi WNW 8.1 mph - N/A   Scattered Clouds
7:15 AM 35.6 °F 29.2 °F 21.2 °F 56% 30.02 in 10.0 mi WNW 8.1 mph - N/A   Overcast
7:35 AM 37.4 °F 30.8 °F 21.2 °F 52% 30.02 in 10.0 mi West 9.2 mph - N/A   Overcast
7:55 AM 35.6 °F 28.6 °F 23.0 °F 60% 30.03 in 10.0 mi West 9.2 mph - N/A   Scattered Clouds
8:15 AM 37.4 °F 30.8 °F 23.0 °F 56% 30.03 in 10.0 mi West 9.2 mph - N/A   Clear
8:35 AM 37.4 °F 30.8 °F 23.0 °F 56% 30.04 in 10.0 mi WNW 9.2 mph - N/A   Clear
8:55 AM 41.0 °F 34.3 °F 24.8 °F 53% 30.05 in 10.0 mi WNW 11.5 mph - N/A   Clear
9:15 AM 42.8 °F 37.0 °F 24.8 °F 49% 30.05 in 10.0 mi WNW 10.4 mph - N/A   Clear
9:35 AM 46.4 °F 39.2 °F 26.6 °F 46% 30.05 in 10.0 mi NW 18.4 mph 23.0 mph N/A   Clear
9:55 AM 48.2 °F - 30.2 °F 50% 30.06 in 10.0 mi NNW 16.1 mph 21.9 mph N/A   Clear
10:15 AM 50.0 °F - 30.2 °F 47% 30.07 in 10.0 mi NNW 16.1 mph 23.0 mph N/A   Clear
10:35 AM 51.8 °F - 30.2 °F 44% 30.07 in 10.0 mi NNW 16.1 mph 23.0 mph N/A   Clear
10:55 AM 53.6 °F - 30.2 °F 41% 30.08 in 10.0 mi NNW 20.7 mph 25.3 mph N/A   Clear
11:15 AM 53.6 °F - 30.2 °F 41% 30.08 in 10.0 mi NNW 24.2 mph 28.8 mph N/A   Clear
11:35 AM 53.6 °F - 30.2 °F 41% 30.09 in 10.0 mi North 20.7 mph 26.5 mph N/A   Clear
11:55 AM 53.6 °F - 30.2 °F 41% 30.08 in 10.0 mi North 19.6 mph 26.5 mph N/A   Clear
12:15 PM 53.6 °F - 30.2 °F 41% 30.08 in 10.0 mi NNW 18.4 mph 24.2 mph N/A   Clear
12:35 PM 53.6 °F - 28.4 °F 38% 30.07 in 10.0 mi NNW 18.4 mph 31.1 mph N/A   Clear
12:55 PM 53.6 °F - 28.4 °F 38% 30.06 in 10.0 mi NNW 23.0 mph 27.6 mph N/A   Clear
1:15 PM 53.6 °F - 28.4 °F 38% 30.05 in 10.0 mi NNW 18.4 mph 26.5 mph N/A   Clear
1:35 PM 55.4 °F - 28.4 °F 36% 30.05 in 10.0 mi NNW 13.8 mph 24.2 mph N/A   Clear
1:55 PM 55.4 °F - 26.6 °F 33% 30.04 in 10.0 mi NNW 16.1 mph 23.0 mph N/A   Partly Cloudy
2:15 PM 55.4 °F - 26.6 °F 33% 30.03 in 10.0 mi North 12.7 mph 23.0 mph N/A   Partly Cloudy
2:35 PM 55.4 °F - 26.6 °F 33% 30.03 in 10.0 mi North 16.1 mph 20.7 mph N/A   Clear
2:55 PM 55.4 °F - 26.6 °F 33% 30.02 in 10.0 mi North 11.5 mph 21.9 mph N/A   Clear
3:15 PM 55.4 °F - 26.6 °F 33% 30.01 in 10.0 mi North 9.2 mph 21.9 mph N/A   Clear
3:35 PM 55.4 °F - 26.6 °F 33% 30.02 in 10.0 mi NNW 10.4 mph 19.6 mph N/A   Clear
3:55 PM 53.6 °F - 26.6 °F 35% 30.02 in 10.0 mi NW 12.7 mph - N/A   Clear
4:15 PM 53.6 °F - 26.6 °F 35% 30.01 in 10.0 mi NNW 11.5 mph 16.1 mph N/A   Clear
4:35 PM 53.6 °F - 26.6 °F 35% 30.01 in 10.0 mi WNW 10.4 mph - N/A   Clear
4:55 PM 53.6 °F - 26.6 °F 35% 30.00 in 10.0 mi WNW 8.1 mph - N/A   Clear
5:15 PM 51.8 °F - 26.6 °F 38% 30.00 in 10.0 mi WNW 5.8 mph - N/A   Clear
5:35 PM 48.2 °F - 24.8 °F 40% 29.99 in 10.0 mi West 5.8 mph - N/A   Clear
5:55 PM 46.4 °F 43.5 °F 24.8 °F 43% 29.99 in 10.0 mi WNW 5.8 mph - N/A   Clear
6:15 PM 44.6 °F 43.1 °F 23.0 °F 43% 29.98 in 10.0 mi SW 3.5 mph - N/A   Clear
6:35 PM 42.8 °F 40.1 °F 23.0 °F 46% 29.98 in 10.0 mi SW 4.6 mph - N/A   Clear
6:55 PM 41.0 °F 37.1 °F 21.2 °F 45% 29.98 in 10.0 mi South 5.8 mph - N/A   Clear
7:15 PM 42.8 °F 40.1 °F 24.8 °F 49% 29.97 in 10.0 mi SSW 4.6 mph - N/A   Clear
7:35 PM 39.2 °F 35.0 °F 24.8 °F 56% 29.97 in 10.0 mi South 5.8 mph - N/A   Clear
7:55 PM 39.2 °F 34.2 °F 23.0 °F 52% 29.96 in 10.0 mi South 6.9 mph - N/A   Clear
8:15 PM 37.4 °F 31.4 °F 21.2 °F 52% 29.95 in 10.0 mi South 8.1 mph - N/A   Clear
8:35 PM 37.4 °F 31.4 °F 23.0 °F 56% 29.94 in 10.0 mi SSW 8.1 mph - N/A   Clear
8:55 PM 37.4 °F 30.8 °F 23.0 °F 56% 29.93 in 10.0 mi SSW 9.2 mph - N/A   Clear
9:15 PM 39.2 °F 32.5 °F 26.6 °F 61% 29.92 in 10.0 mi SSW 10.4 mph - N/A   Clear
9:35 PM 39.2 °F 32.5 °F 24.8 °F 56% 29.91 in 10.0 mi SSW 10.4 mph - N/A   Clear
9:55 PM 39.2 °F 32.0 °F 24.8 °F 56% 29.90 in 10.0 mi SSW 11.5 mph - N/A   Clear
10:15 PM 39.2 °F 32.0 °F 24.8 °F 56% 29.89 in 10.0 mi SSW 11.5 mph - N/A   Clear
10:35 PM 39.2 °F 31.2 °F 26.6 °F 61% 29.88 in 10.0 mi SSW 13.8 mph - N/A   Clear
10:55 PM 41.0 °F 33.9 °F 26.6 °F 57% 29.87 in 10.0 mi SSW 12.7 mph - N/A   Clear
11:15 PM 42.8 °F 35.8 °F 26.6 °F 53% 29.86 in 10.0 mi SSW 13.8 mph - N/A   Clear
11:35 PM 41.0 °F 33.5 °F 26.6 °F 57% 29.85 in 10.0 mi SSW 13.8 mph - N/A   Clear
11:55 PM 39.2 °F 30.8 °F 26.6 °F 61% 29.84 in 10.0 mi SSW 15.0 mph 21.9 mph N/A   Clear